RH
14 16 16 14 15 15 16 18 19 21 21 19 18 18 18 19 19 18 18 17 15 16 16 14 14 14 14 15 17 18 17 17 19 22 24 25 26 29 33 35 36 38 40 43 46 45 47 53 54 52 48 46 46 44 46 48 48 52 56 61 70 79 85 84 81 82 88 93 91 87 84 80 81 83 81 78 78 77 73 69 64 57 55 52 52 55
15 19 17 14 16 17 20 21 21 22 22 21 20 19 19 20 20 19 20 19 16 15 16 15 15 14 14 14 16 18 19 17 17 19 22 23 23 24 27 30 31 34 36 39 43 45 46 50 54 54 49 47 47 44 47 50 50 51 54 57 63 72 79 79 78 80 87 91 89 88 85 80 80 81 80 78 76 74 71 65 60 55 53 52 52 54
19 20 17 18 19 18 20 20 21 22 23 23 21 19 20 21 20 21 21 19 17 16 17 16 16 16 15 15 16 17 18 18 17 18 20 22 22 22 24 26 27 29 33 34 37 43 45 47 51 53 50 47 45 43 48 54 53 51 52 55 58 66 74 76 75 78 84 88 88 86 82 79 80 80 79 77 75 72 67 61 56 53 52 51 52 52
23 21 18 20 19 16 19 20 22 25 24 24 21 20 21 21 22 24 23 19 19 18 16 16 17 16 16 16 15 16 16 17 17 17 18 20 21 22 23 25 27 29 31 33 35 39 44 47 47 49 49 48 46 45 49 55 53 50 51 53 56 62 70 76 76 76 81 87 88 85 82 80 79 78 80 80 76 69 62 58 55 52 51 51 51 50
25 23 20 20 17 17 22 24 24 25 22 22 22 20 21 22 23 24 22 19 19 18 16 17 17 16 16 16 16 17 17 15 16 16 16 17 19 23 24 24 29 32 30 33 34 36 41 46 46 48 51 50 49 49 50 53 53 51 51 52 55 60 67 75 77 75 80 87 88 86 84 82 80 81 82 78 73 66 60 57 54 51 49 47 48 48
26 24 20 19 18 19 23 24 24 24 21 21 22 22 21 21 21 20 19 19 18 19 19 18 17 19 19 19 19 20 18 15 15 15 15 16 17 21 23 22 26 30 30 33 35 33 37 44 47 51 53 52 52 51 51 54 54 52 51 53 56 60 66 75 78 76 79 84 85 86 85 84 82 82 80 74 68 63 59 58 53 48 45 42 42 43
26 24 21 22 22 21 22 23 23 23 21 21 24 23 21 19 18 19 20 21 20 21 23 20 18 20 21 22 23 22 20 17 17 17 16 17 16 18 21 22 23 27 32 38 37 32 34 40 47 51 55 54 54 54 54 57 59 55 53 54 57 60 65 73 77 75 77 81 83 86 87 86 83 80 77 71 65 61 58 55 50 46 43 39 37 37
26 24 23 25 25 24 23 23 24 23 22 25 25 21 19 19 20 21 21 21 22 23 23 20 17 19 19 22 25 24 22 21 21 22 20 21 20 19 21 22 23 27 36 41 37 32 33 37 43 48 53 55 55 57 57 59 62 60 56 55 56 60 63 70 76 77 76 79 82 85 87 88 86 81 75 68 65 62 57 51 47 46 45 41 39 36
29 27 27 27 26 25 24 23 24 24 24 26 24 20 20 21 21 22 21 23 24 23 23 22 21 20 19 20 26 26 23 23 27 28 26 25 26 25 24 24 25 29 37 40 36 35 33 35 42 47 50 55 57 58 58 59 62 60 57 56 56 58 61 68 75 76 76 79 82 86 87 88 86 78 71 66 62 58 54 51 48 48 47 44 43 40
32 28 28 28 27 27 25 24 24 24 26 25 22 20 21 22 22 23 24 25 27 25 22 23 25 23 20 21 26 28 26 26 31 32 28 28 29 29 27 28 27 30 37 39 38 39 37 38 45 48 49 55 59 58 59 62 63 59 55 56 56 58 60 67 73 74 78 82 87 88 84 84 81 72 65 63 57 52 54 54 51 50 49 46 44 40
30 27 27 27 27 27 26 25 24 25 25 24 22 22 23 24 25 26 26 27 31 29 22 23 28 26 22 20 24 33 35 32 33 32 30 30 31 30 29 28 27 30 37 40 41 43 43 40 43 46 47 53 58 58 60 65 66 60 56 55 56 58 61 67 72 74 79 86 91 89 83 82 79 68 62 60 55 54 59 59 55 53 53 50 45 42
28 27 28 27 28 28 27 26 24 24 24 24 23 24 28 29 30 30 31 31 32 30 26 27 28 28 24 21 24 33 35 32 31 32 31 33 33 32 31 29 28 28 34 40 42 44 43 38 38 41 44 49 55 60 65 69 68 62 58 57 58 61 63 68 74 77 81 87 89 85 81 82 78 64 55 55 54 57 63 65 62 57 59 58 49 44
30 29 29 31 30 29 28 28 26 24 24 25 25 27 30 32 35 35 33 34 31 28 31 29 28 29 25 24 29 32 30 29 30 31 32 36 37 35 32 31 30 30 33 37 37 40 40 38 39 41 43 47 51 57 63 68 69 64 60 60 61 63 65 68 73 78 83 85 83 81 80 79 73 59 52 54 57 60 64 68 66 62 65 65 55 50
33 32 30 32 32 29 28 29 30 28 26 27 28 31 31 30 35 37 32 32 30 30 34 32 30 29 24 28 33 29 29 30 30 31 33 37 40 38 34 33 33 34 35 35 36 38 39 40 41 42 45 47 48 52 57 63 67 64 61 62 62 63 68 71 71 76 83 82 80 80 80 77 69 58 55 57 60 63 65 69 69 66 67 63 53 51
35 34 32 33 32 30 28 28 30 31 31 30 30 32 32 30 34 37 33 32 32 35 38 35 33 29 27 34 37 32 32 31 30 33 35 39 41 41 38 35 35 35 36 38 38 39 40 41 42 42 45 48 48 52 59 64 66 65 62 62 59 60 69 75 74 76 81 81 79 80 79 75 67 60 58 57 58 62 65 65 64 63 63 58 51 51
34 34 34 35 33 30 29 27 27 31 33 32 31 31 32 32 33 35 36 37 36 37 39 37 34 31 31 36 35 32 33 32 32 34 36 40 43 43 44 42 39 38 39 40 40 40 42 42 42 43 45 49 50 54 59 62 63 64 64 63 58 56 64 72 77 79 78 76 79 79 75 73 68 61 59 57 56 59 60 61 62 63 64 59 53 51
34 34 34 33 33 30 30 29 26 28 32 33 32 32 31 31 32 35 38 38 36 35 37 37 34 32 34 36 35 34 34 33 33 36 39 44 47 46 48 49 50 47 44 43 41 41 42 40 42 45 46 50 53 55 58 59 61 65 67 64 58 57 62 67 73 77 73 71 73 73 73 73 67 61 60 56 55 57 58 60 63 64 63 57 53 52
39 40 38 35 34 32 30 31 29 27 31 34 34 32 31 32 32 34 37 40 38 37 38 38 36 34 35 39 43 43 42 38 35 37 42 47 49 50 51 52 55 54 50 48 44 42 41 41 43 46 48 52 55 57 56 57 62 68 69 66 61 60 66 69 69 72 73 69 68 70 73 72 64 60 60 58 57 60 59 61 63 62 60 58 57 59
45 44 45 40 37 36 32 32 33 30 29 31 33 33 35 38 37 36 37 39 41 41 40 39 38 35 33 40 47 48 46 42 39 41 46 50 53 53 54 56 58 58 57 53 50 48 45 45 46 47 51 56 58 57 56 56 63 69 69 68 66 65 69 73 71 74 79 76 71 72 72 68 64 61 60 59 59 60 61 63 65 65 65 63 64 64
49 49 52 47 41 39 37 34 34 35 32 29 32 33 35 38 39 41 41 39 40 41 41 41 40 40 41 43 45 44 42 42 43 45 49 54 58 57 57 59 59 60 60 58 57 56 52 51 52 53 56 58 58 59 58 58 62 66 68 68 68 66 68 75 75 75 81 79 71 70 69 66 65 63 61 59 58 58 61 63 67 70 67 64 64 63
54 54 55 52 46 42 43 41 38 40 38 34 33 33 35 37 37 41 43 40 42 42 44 45 42 46 51 46 41 40 41 45 47 48 52 58 60 59 59 59 60 61 61 59 59 58 55 55 56 57 59 60 61 61 61 63 62 63 66 67 68 67 67 72 74 72 73 71 65 65 66 66 67 66 64 62 60 61 63 65 69 71 66 60 60 59
58 56 54 54 50 47 49 48 43 44 43 40 39 38 38 41 40 41 41 39 39 38 42 45 45 52 55 46 41 43 45 49 52 53 57 60 61 61 60 60 61 61 61 60 60 60 61 61 60 61 62 64 67 65 63 67 68 67 67 67 66 68 67 68 71 71 71 68 65 65 66 68 70 69 68 66 64 65 65 66 69 68 64 60 57 57
64 61 57 56 54 53 55 52 46 46 44 41 43 42 42 44 43 43 45 44 42 39 41 42 42 51 55 48 45 47 48 52 55 57 60 62 63 63 62 63 62 61 61 61 60 61 63 64 65 66 65 66 70 70 67 68 70 70 68 65 64 67 68 69 70 70 72 72 68 67 68 70 71 70 70 70 70 69 67 66 66 65 66 62 56 60
67 67 64 62 59 56 55 53 49 47 46 46 48 45 43 45 45 44 45 48 46 42 43 42 42 52 56 50 49 50 50 52 55 58 62 64 65 66 64 64 63 61 60 60 61 63 65 67 69 70 69 69 71 73 69 66 68 71 67 63 64 69 71 72 72 72 74 75 71 69 71 72 72 73 74 74 74 71 66 65 64 66 67 64 59 62
70 70 69 68 67 64 59 55 53 50 50 54 54 48 45 44 44 42 42 44 44 42 44 45 48 58 60 53 52 52 51 54 55 56 60 63 66 68 68 66 63 61 61 63 66 69 70 70 71 71 71 71 71 72 70 69 70 73 70 64 67 75 76 75 76 76 77 79 76 76 78 77 75 76 76 76 75 70 66 64 65 66 68 65 62 60
70 70 68 67 69 72 69 65 65 64 61 59 56 51 49 47 45 44 42 41 41 43 46 45 49 60 62 56 55 55 53 56 59 58 60 62 65 67 67 65 64 64 66 68 70 72 73 72 73 74 73 71 69 69 70 71 73 72 69 67 69 77 79 76 76 76 77 79 79 79 83 81 78 78 76 75 73 69 66 64 63 64 66 66 63 59
64 65 65 64 66 71 74 73 74 74 71 68 64 59 55 51 50 48 45 46 50 51 49 47 49 58 63 57 55 55 55 58 62 63 65 65 64 64 65 64 64 65 68 70 70 70 71 70 71 72 72 71 72 75 74 72 71 70 68 66 68 74 79 77 75 74 75 76 76 77 80 81 79 79 77 74 70 67 65 63 62 64 66 66 63 57
64 62 61 64 65 65 68 71 73 74 74 73 70 65 60 56 54 52 49 52 58 55 52 54 57 63 66 60 55 55 57 61 66 70 72 71 68 68 68 68 68 70 72 73 74 72 69 71 74 76 78 77 77 85 88 79 71 67 66 66 68 73 76 75 73 73 75 78 80 81 82 83 81 81 81 77 73 69 67 66 65 66 68 66 62 58
71 69 64 66 68 63 62 66 69 73 75 73 70 67 64 61 59 56 53 54 56 55 57 65 69 72 71 64 59 58 58 62 70 75 77 77 76 75 75 75 74 74 75 75 77 78 76 78 83 87 91 91 88 91 93 84 73 69 68 70 74 75 76 74 72 73 75 79 82 83 84 84 83 84 84 80 76 74 71 69 69 70 68 64 59 58
71 76 72 70 71 66 62 64 66 70 75 75 75 73 69 66 64 60 56 55 55 58 64 69 72 74 70 65 64 64 63 66 71 75 76 77 78 79 80 79 78 77 75 74 76 81 84 86 88 90 95 100 100 98 93 84 79 77 76 76 78 79 79 79 79 79 79 81 84 84 83 83 83 85 84 81 79 78 75 75 75 76 74 66 59 57
60 67 69 71 73 68 65 65 66 69 75 78 80 79 75 74 73 67 62 60 60 65 70 70 71 72 70 68 69 70 70 72 73 74 76 77 79 82 82 82 82 80 78 78 79 83 90 93 92 93 96 99 101 100 94 89 86 83 81 80 80 81 81 81 85 88 85 85 86 85 84 83 85 86 83 81 82 82 81 82 82 81 79 71 62 57
58 61 67 70 71 69 67 67 66 69 76 80 83 84 84 84 83 78 72 67 67 73 77 74 72 72 72 73 75 76 79 79 77 76 75 75 78 81 82 84 84 82 80 82 85 87 93 96 97 97 98 98 99 98 96 94 90 86 83 82 82 84 84 84 88 90 90 91 91 89 88 87 86 86 84 83 86 86 87 88 88 86 82 76 70 64
67 68 69 67 65 66 67 68 69 71 77 83 86 90 93 91 88 87 83 77 73 76 80 78 75 72 73 76 79 82 84 83 81 79 76 74 75 78 81 83 83 82 80 81 86 92 94 97 99 99 99 99 98 96 96 96 94 91 88 86 84 86 87 88 90 93 94 95 94 92 91 89 87 88 87 88 90 90 89 89 90 90 86 82 79 74
67 65 65 61 58 64 69 69 68 71 79 86 88 90 94 95 93 93 92 86 80 77 76 76 74 73 76 80 82 84 86 86 85 83 80 77 75 76 79 81 81 81 79 77 83 92 96 98 99 99 99 98 97 96 96 96 96 95 93 90 89 89 90 90 93 96 97 96 95 94 93 91 90 89 90 90 91 93 92 91 91 91 89 87 84 80
58 59 61 60 59 64 71 70 70 74 82 85 84 83 87 93 94 94 94 91 86 80 77 76 76 77 80 82 83 85 86 86 86 86 84 81 79 78 78 79 80 79 77 75 77 86 95 99 100 99 99 98 97 97 97 96 95 95 93 92 93 93 94 94 94 97 99 98 95 93 93 94 93 93 92 91 92 92 92 92 93 93 92 90 87 82
55 60 63 64 62 62 65 69 77 84 84 82 81 82 85 89 92 94 95 94 89 84 82 82 82 81 82 83 84 85 85 85 86 87 86 84 82 82 81 81 80 79 78 77 76 82 91 96 98 99 98 98 97 97 97 95 93 91 89 90 92 92 94 97 97 97 98 96 92 91 93 94 93 92 92 92 91 92 91 92 93 92 90 90 90 87
54 61 65 65 62 58 62 72 84 89 86 85 87 87 86 89 91 92 95 96 92 88 88 88 87 85 86 85 85 85 84 83 83 84 86 86 84 84 84 84 83 81 81 81 78 80 87 92 95 95 94 93 92 92 93 92 91 89 88 89 94 95 96 99 99 98 96 95 92 90 91 91 90 90 92 93 93 93 93 92 91 89 88 89 91 91
52 58 65 69 64 56 59 73 80 82 85 89 89 86 86 88 89 89 92 94 94 92 92 92 91 90 89 88 88 87 85 83 84 86 87 85 82 82 84 86 85 84 85 84 82 82 85 89 93 94 90 89 87 85 86 87 87 88 87 88 93 96 96 97 98 96 95 94 93 90 87 86 87 89 91 91 90 90 88 87 87 88 88 89 91 92
55 57 63 71 71 61 59 67 74 79 84 87 86 86 86 88 89 89 89 91 92 92 92 93 94 94 92 91 92 90 87 86 89 91 91 88 83 81 82 84 86 86 86 86 85 85 85 85 90 92 89 88 86 83 82 82 84 85 84 84 87 89 90 90 90 90 89 88 87 86 83 84 88 90 89 88 88 85 82 81 83 84 86 87 89 89
64 67 69 73 74 68 64 66 71 78 81 81 82 84 85 88 90 89 88 89 89 89 91 93 94 95 95 94 94 93 91 91 93 95 96 92 85 82 81 82 83 83 83 82 81 81 81 81 83 85 84 83 84 83 80 79 79 80 80 81 83 83 82 81 80 80 79 77 76 77 79 82 87 89 88 89 89 85 82 82 83 83 85 86 87 86
70 74 77 77 76 73 73 73 74 78 79 76 78 81 82 85 88 86 88 91 90 89 91 93 94 96 97 97 97 97 96 96 95 95 96 93 89 86 84 83 82 82 80 79 79 78 78 79 80 81 81 79 80 81 80 78 76 75 75 76 78 79 78 76 74 73 72 70 70 72 75 79 82 83 83 85 86 83 82 83 85 87 89 89 90 89
75 79 81 81 78 75 74 74 74 77 78 77 77 77 77 81 86 86 88 92 92 90 90 92 93 95 96 97 97 99 100 98 97 96 97 96 93 90 87 85 84 83 82 81 81 80 80 80 80 82 82 79 78 79 79 78 77 76 75 74 75 76 75 75 74 73 71 70 69 69 71 73 74 74 73 73 75 75 75 75 76 78 82 84 86 87
86 87 86 84 79 72 69 71 75 79 80 78 77 76 76 80 86 88 88 90 94 94 94 94 95 94 95 95 95 97 99 99 99 98 97 95 94 92 89 87 86 85 85 86 85 84 83 82 82 84 84 81 79 78 78 78 79 79 78 76 75 74 73 72 72 72 71 71 71 70 70 70 70 70 69 69 69 69 70 70 69 69 71 72 73 75
90 87 85 83 79 73 73 77 80 83 85 84 82 82 83 86 89 90 89 92 97 98 97 98 99 98 98 97 96 96 97 97 97 97 95 95 94 92 91 91 89 88 88 88 88 86 85 83 83 82 82 81 79 79 78 78 79 80 79 78 77 75 73 71 70 71 72 73 74 73 72 71 71 72 72 71 69 68 68 68 69 69 68 67 67 66
88 84 80 79 77 75 77 83 85 85 88 89 89 89 90 92 94 93 93 94 97 99 98 98 99 99 99 99 98 97 97 96 95 95 94 94 94 93 93 93 92 90 90 90 89 88 86 84 83 82 81 80 80 80 80 79 78 77 77 79 80 78 76 74 73 73 73 73 73 74 73 73 74 74 73 72 70 69 68 68 68 69 70 69 68 67
84 82 78 78 79 79 82 85 86 88 90 92 93 94 95 97 98 98 97 97 98 99 98 97 97 97 98 99 99 98 97 96 95 94 93 92 92 91 91 92 91 90 90 89 89 88 88 87 86 85 84 83 82 82 83 82 80 77 75 76 77 77 76 74 73 73 72 71 71 70 70 71 71 71 70 69 67 66 65 65 65 66 67 68 68 68
76 78 77 76 80 84 87 87 85 87 90 91 92 93 95 97 98 99 98 98 98 97 96 96 95 96 97 97 96 95 95 93 91 90 89 88 88 88 89 90 90 89 89 89 88 88 87 87 87 86 86 86 85 85 84 83 82 79 77 75 75 74 72 71 69 69 69 69 69 68 67 66 66 65 64 63 62 61 60 59 59 59 60 61 61 62
64 67 69 70 74 78 82 82 79 78 80 82 83 84 86 87 90 92 93 94 94 93 93 93 93 94 94 93 92 93 92 90 89 89 88 87 87 87 88 89 90 89 88 88 88 87 86 86 86 86 86 85 86 85 84 83 81 79 78 77 76 74 72 70 68 67 66 66 66 65 65 64 64 63 63 62 61 60 59 58 57 57 57 57 57 57
51 53 56 60 63 67 69 70 69 70 71 70 68 69 70 71 74 76 79 81 82 83 86 88 89 90 91 91 91 91 91 90 90 89 89 89 88 88 88 89 90 90 89 88 87 87 87 86 85 85 84 83 83 84 82 82 81 81 79 78 78 76 74 72 70 69 68 67 66 64 63 62 62 61 61 61 60 59 58 57 58 57 57 57 56 56
41 43 44 45 49 53 55 56 56 58 59 58 56 56 58 59 60 60 62 64 66 68 71 76 81 85 87 88 90 90 88 88 88 86 84 84 84 85 86 87 87 86 86 85 84 83 83 82 81 81 79 78 79 79 79 79 79 79 78 77 76 75 74 73 73 71 69 68 66 63 63 62 61 60 59 59 60 61 59 57 55 55 54 53 52 51
42 45 42 38 41 46 47 47 47 47 47 46 45 47 50 51 50 50 49 50 52 53 54 56 61 67 72 76 81 84 85 85 85 84 81 80 80 81 81 80 79 79 79 79 78 77 76 76 75 74 73 73 73 74 74 75 75 74 73 72 72 72 73 73 73 72 71 68 61 57 58 59 58 57 57 57 58 60 60 57 53 50 48 47 46 44